Weather in Gospić

Croatia     44°32′45″N   15°22′31″E
temp.,
°C
wind,
m/s
gust,
m/s
humid.,
%
clouds,
%
prec.,
mm/h
press.,
hPa
HPBL,
m
5 may, wed
wed523:00+7ssw237849 0.0 101459
02:00+7ssw357620 0.0 101396
05:00+5ssw349029 0.0 101279
08:00+9ssw487435 0.0 1011932
11:00+13sw61160100 0.1 10101498
14:00+14ssw71263100 0.2 10091636
17:00+12ssw5147381 0.2 10081314
20:00+9s3796100 0.9 1010591
6 may, thu
thu623:00+9s2597100 2.3 1012223
02:00+8ssw1193100 3.4 101314
05:00+7ne119699 0.5 101478
08:00+7nne1195100 0.8 1015201
11:00+11w248168 0.4 1014755
14:00+15sw585749 0.9 10131690
17:00+13ssw376299 0.1 1012988
20:00+11ssw388699 0.2 1012447
7 may, fri
fri723:00+10ssw51592100 0.3 10121412
02:00+9s4998100 0.4 1012424
05:00+8s379788 0.0 1011307
08:00+12ssw51384100 0.1 10111188
11:00+14sw71871100 0.1 10111696
14:00+13ssw4979100 0.6 10111053
17:00+11s3889100 0.1 1011716
20:00+10sse239399 0.4 101297
8 may, sat
sat823:00+9n3597100 1.5 1015341
02:00+6n4796100 2.7 1018601
05:00+4ne4994100 0.6 1020740
08:00+4nne389071 0.7 1022553
11:00+11ne4547100 0.0 1020971
14:00+14ne33435 0.0 10191313
17:00+14ne324590 0.0 10181306
20:00+8nne2373100 0.0 102042
9 may, sun
sun923:00+5nne218061 0.0 102218
02:00+4nne11825 0.0 102318
05:00+3nne11825 0.0 102216
08:00+10nne12605 0.0 1020146
11:00+18s01422 0.0 1019776
14:00+20ssw23375 0.0 10181344
17:00+18ssw33440 0.0 1018742
20:00+11ssw11700 0.0 101810